Weather History for Saranac Lake, NY

Change the Weather History Date:

Monday, April 7, 2014

  Actual Average Record
Temperature  
Mean Temperature 35 °F 34 °F  
Max Temperature 52 °F 46 °F 75 °F (1991)
Min Temperature 18 °F 23 °F -6 °F (2003)
Degree Days  
Heating Degree Days 30 31  
Month to date heating degree days 225 225  
Since 1 July heating degree days 8761 8187  
Cooling Degree Days 0 0  
Month to date cooling degree days 0 0  
Year to date cooling degree days 0 0  
Moisture  
Dew Point 21 °F    
Average Humidity 59    
Maximum Humidity 92    
Minimum Humidity 25    
Precipitation  
Precipitation 0.11 in 0.08 in 0.46 in (1989)
Month to date precipitation 0.37 0.64  
Year to date precipitation 4.62 6.66  
Sea Level Pressure  
Sea Level Pressure 30.04 in    
Wind  
Wind Speed 6 mph (SSE)    
Max Wind Speed 23 mph    
Max Gust Speed 28 mph    
Visibility 10 miles    
Events Rain    
T = Trace of Precipitation, MM = Missing Value Source: NWS Daily Summary

Daily Weather History Graph

Daily Weather History Graph

Search for Another Location

Airport:

Trip Planner

Search our weather history database for the weather conditions in past years. The results will help you decide how hot, cold, wet, or windy it might be!

Date:

Astronomy

Apr. 07, 2014 Rise Set
Actual Time 6:27 AM EDT 7:31 PM EDT
Civil Twilight 5:57 AM EDT 8:01 PM EDT
Nautical Twilight 5:21 AM EDT 8:36 PM EDT
Astronomical Twilight 4:44 AM EDT 9:14 PM EDT
Moon 12:14 PM EDT (4/7) 2:13 AM EDT (4/7)
Length of Visible Light 14h 03m
Length of Day
13h 04m
First Quarter, 53% of the Moon is Illuminated
Apr 7
First Quarter
Apr 15
Full
Apr 22
Last Quarter
Apr 29
New
May 6
First Quarter

Hourly Weather History & Observations

Time (EDT) Temp. Windchill Dew Point Humidity Pressure Visibility Wind Dir Wind Speed Gust Speed Precip Events Conditions
12:51 AM 24.1 °F - 19.9 °F 84% 30.18 in 10.0 mi Calm Calm - N/A   Clear
1:51 AM 21.9 °F - 19.0 °F 89% 30.18 in 10.0 mi Calm Calm - N/A   Clear
2:51 AM 21.0 °F 16.2 °F 18.0 °F 88% 30.18 in 10.0 mi NE 3.5 mph - N/A   Clear
3:51 AM 19.9 °F - 18.0 °F 92% 30.17 in 10.0 mi Calm Calm - N/A   Clear
4:51 AM 19.9 °F - 18.0 °F 92% 30.17 in 10.0 mi Calm Calm - N/A   Clear
5:51 AM 19.9 °F - 18.0 °F 92% 30.16 in 10.0 mi Calm Calm - N/A   Clear
6:51 AM 19.0 °F - 17.1 °F 92% 30.16 in 10.0 mi Calm Calm - N/A   Clear
7:51 AM 24.1 °F - 19.9 °F 84% 30.15 in 10.0 mi Calm Calm - N/A   Clear
8:51 AM 34.0 °F - 19.0 °F 54% 30.15 in 10.0 mi Calm Calm - N/A   Clear
9:51 AM 39.9 °F - 23.0 °F 51% 30.14 in 10.0 mi Calm Calm - N/A   Clear
10:51 AM 46.9 °F - 23.0 °F 39% 30.10 in 10.0 mi SSW 5.8 mph - N/A   Clear
11:51 AM 52.0 °F - 19.0 °F 27% 30.06 in 10.0 mi SSE 12.7 mph - N/A   Clear
12:51 PM 52.0 °F - 19.0 °F 27% 30.06 in 10.0 mi SE 10.4 mph - N/A   Clear
1:51 PM 48.9 °F - 19.0 °F 31% 30.04 in 10.0 mi South 17.3 mph - N/A   Clear
2:51 PM 48.9 °F - 19.0 °F 31% 30.03 in 10.0 mi South 11.5 mph - N/A   Clear
3:51 PM 48.9 °F - 15.1 °F 26% 30.01 in 10.0 mi South 10.4 mph - N/A   Clear
4:51 PM 46.9 °F - 12.9 °F 25% 29.98 in 10.0 mi South 16.1 mph 24.2 mph N/A   Overcast
5:51 PM 46.9 °F - 17.1 °F 30% 29.97 in 10.0 mi South 10.4 mph - N/A   Mostly Cloudy
6:51 PM 46.9 °F - 19.9 °F 34% 29.94 in 10.0 mi South 8.1 mph 20.7 mph N/A   Scattered Clouds
7:51 PM 46.0 °F 42.5 °F 24.1 °F 42% 29.89 in 10.0 mi SSE 6.9 mph - N/A   Mostly Cloudy
8:51 PM 43.0 °F 35.1 °F 25.0 °F 49% 29.88 in 10.0 mi South 17.3 mph 24.2 mph N/A   Overcast
9:51 PM 39.9 °F 37.8 °F 30.0 °F 68% 29.83 in 10.0 mi SSE 3.5 mph - 0.00 in   Overcast
10:51 PM 36.0 °F 29.6 °F 33.1 °F 89% 29.76 in 6.0 mi East 8.1 mph - 0.04 in Rain Light Rain
11:51 PM 36.0 °F 31.1 °F 33.1 °F 89% 29.70 in 10.0 mi East 5.8 mph - 0.02 in   Overcast